sat.trackr.live / text

‹ back to catalog

STARLINK-33826

NORAD 63641 · 2025-083H

PAYLOAD ACTIVE UNKNOWN

§ Identity

Operator
Country
US
Launch date
2025-04-25
Launch site
AFETR
Launch vehicle
Mass (kg)
RCS (m²)

Purposes: comms

External: N2YO · Heavens-Above · Gunter

§ Orbital elements

Epoch: 2026-09-20T05:56:38.605920Z

Period
94.27 min
Inclination
43.0009°
Eccentricity
0.0001197
Mean motion
15.27584029 rev/d
Perigee alt
482.2 km
Apogee alt
483.9 km
Semi-major
6,861.2 km
B*
1.5534e-4
RAAN
346.3094°
Arg perigee
267.8862°
Mean anomaly
92.1853°
Rev number
7,982

§ Raw data

STARLINK-338261 63641U 25083H   26263.24766905  .00004015  00000+0  15534-3 0  99962 63641  43.0009 346.3094 0001197 267.8862  92.1853 15.27584029 79821

JSON: /api/v1/satellites/63641 · /tle

For live sub-satellite position, see the globe view (requires WebGL).

§ Visibility from observer

Set your observer location to see the next 7 days of passes ≥ 10°. The values pass through the URL so the page stays shareable.

No JS? Fill the form by hand. The geolocation button needs JavaScript.